EN

Hourly Weather Bolshie Matveevichi

Today, 23 October, Friday

Time Temperature Precipitation Wind Pressure Humidity
00:00 +11°C° 0 mm 3 mps 748 mmHg 87%
01:00 +11°C° 0 mm 3 mps 749 mmHg 88%
02:00 +11°C° 0 mm 3 mps 749 mmHg 89%
03:00 +11°C° 0 mm 3 mps 748 mmHg 89%
04:00 +11°C° 0 mm 3 mps 748 mmHg 88%
05:00 +11°C° 0 mm 3 mps 748 mmHg 88%
06:00 +11°C° 0 mm 4 mps 747 mmHg 87%
07:00 +11°C° 0 mm 4 mps 747 mmHg 85%
08:00 +11°C° 0 mm 4 mps 747 mmHg 84%
09:00 +12°C° 0 mm 5 mps 747 mmHg 80%
10:00 +13°C° 0 mm 5 mps 747 mmHg 76%
11:00 +14°C° 0 mm 5 mps 746 mmHg 72%
12:00 +15°C° 0 mm 5 mps 746 mmHg 71%
13:00 +15°C° 0 mm 5 mps 746 mmHg 70%
14:00 +16°C° 0 mm 5 mps 746 mmHg 69%
15:00 +15°C° 0 mm 4 mps 746 mmHg 72%
16:00 +14°C° 0 mm 4 mps 746 mmHg 76%
17:00 +14°C° 0 mm 3 mps 745 mmHg 80%
18:00 +13°C° 0 mm 3 mps 746 mmHg 83%
19:00 +12°C° 0 mm 3 mps 746 mmHg 87%
20:00 +13°C° 0 mm 2 mps 746 mmHg 90%
21:00 +13°C° 0 mm 2 mps 746 mmHg 91%
22:00 +13°C° 0 mm 2 mps 746 mmHg 91%
23:00 +13°C° 0 mm 2 mps 746 mmHg 91%

Tomorrow, 24 October, Saturday

Time Temperature Precipitation Wind Pressure Humidity
00:00 +13°C° 0 mm 2 mps 746 mmHg 92%
01:00 +13°C° 0 mm 1 mps 746 mmHg 92%
02:00 +12°C° 0 mm 1 mps 746 mmHg 92%
03:00 +12°C° 0.1 mm 1 mps 746 mmHg 92%
04:00 +13°C° 0.1 mm 1 mps 746 mmHg 93%
05:00 +13°C° 0.1 mm 1 mps 745 mmHg 93%
06:00 +12°C° 0.4 mm 1 mps 745 mmHg 94%
07:00 +12°C° 0.4 mm 1 mps 745 mmHg 95%
08:00 +12°C° 0.4 mm 1 mps 745 mmHg 95%
09:00 +12°C° 1.8 mm 1 mps 745 mmHg 95%
10:00 +12°C° 1.8 mm 2 mps 745 mmHg 95%
11:00 +12°C° 1.8 mm 2 mps 745 mmHg 95%
12:00 +12°C° 2.3 mm 2 mps 745 mmHg 96%
13:00 +11°C° 2.3 mm 3 mps 745 mmHg 96%
14:00 +11°C° 2.3 mm 3 mps 745 mmHg 96%
15:00 +11°C° 0.6 mm 3 mps 745 mmHg 96%
16:00 +11°C° 0.6 mm 3 mps 745 mmHg 95%
17:00 +12°C° 0.6 mm 3 mps 745 mmHg 95%
18:00 +11°C° 0 mm 3 mps 746 mmHg 95%
19:00 +10°C° 0 mm 3 mps 746 mmHg 95%
20:00 +10°C° 0 mm 3 mps 747 mmHg 96%
21:00 +10°C° 0 mm 3 mps 747 mmHg 95%
22:00 +9°C° 0 mm 3 mps 748 mmHg 95%
23:00 +9°C° 0 mm 3 mps 748 mmHg 95%

Day after tomorrow, 25 October, Sunday

Time Temperature Precipitation Wind Pressure Humidity
00:00 +9°C° 0 mm 3 mps 748 mmHg 95%
01:00 +9°C° 0 mm 3 mps 748 mmHg 95%
02:00 +8°C° 0 mm 2 mps 749 mmHg 96%
03:00 +8°C° 0 mm 2 mps 749 mmHg 96%
04:00 +8°C° 0 mm 2 mps 749 mmHg 96%
05:00 +8°C° 0 mm 2 mps 750 mmHg 96%
06:00 +8°C° 0 mm 2 mps 750 mmHg 96%
07:00 +8°C° 0 mm 2 mps 750 mmHg 95%
08:00 +8°C° 0 mm 1 mps 750 mmHg 95%
09:00 +10°C° 0 mm 1 mps 751 mmHg 88%
10:00 +10°C° 0 mm 2 mps 751 mmHg 81%
11:00 +13°C° 0 mm 2 mps 751 mmHg 74%
12:00 +13°C° 0 mm 1 mps 751 mmHg 70%
13:00 +14°C° 0 mm 1 mps 751 mmHg 65%
14:00 +15°C° 0 mm 1 mps 751 mmHg 61%
15:00 +14°C° 0 mm 1 mps 751 mmHg 66%
16:00 +12°C° 0 mm 1 mps 751 mmHg 70%
17:00 +11°C° 0 mm 1 mps 751 mmHg 75%
18:00 +10°C° 0 mm 2 mps 751 mmHg 79%
19:00 +9°C° 0 mm 2 mps 751 mmHg 82%
20:00 +9°C° 0 mm 2 mps 751 mmHg 86%
21:00 +8°C° 0 mm 2 mps 752 mmHg 88%
22:00 +8°C° 0 mm 2 mps 752 mmHg 90%
23:00 +8°C° 0 mm 2 mps 752 mmHg 92%

, 26 October, Monday

Time Temperature Precipitation Wind Pressure Humidity
00:00 +7°C° 0 mm 2 mps 752 mmHg 93%
01:00 +7°C° 0 mm 3 mps 751 mmHg 93%
02:00 +7°C° 0 mm 3 mps 751 mmHg 94%
03:00 +7°C° 0 mm 3 mps 751 mmHg 94%
04:00 +7°C° 0 mm 3 mps 751 mmHg 94%
05:00 +7°C° 0 mm 3 mps 751 mmHg 94%
06:00 +6°C° 0 mm 4 mps 751 mmHg 95%
07:00 +6°C° 0 mm 4 mps 751 mmHg 95%
08:00 +6°C° 0 mm 4 mps 751 mmHg 96%
09:00 +7°C° 0 mm 5 mps 751 mmHg 92%
10:00 +8°C° 0 mm 5 mps 750 mmHg 89%
11:00 +9°C° 0 mm 5 mps 750 mmHg 85%
12:00 +10°C° 0 mm 5 mps 750 mmHg 82%
13:00 +11°C° 0 mm 6 mps 750 mmHg 79%
14:00 +13°C° 0 mm 6 mps 749 mmHg 75%
15:00 +12°C° 0 mm 5 mps 749 mmHg 77%
16:00 +12°C° 0 mm 5 mps 749 mmHg 79%
17:00 +10°C° 0 mm 5 mps 748 mmHg 81%
18:00 +10°C° 0 mm 5 mps 748 mmHg 81%
19:00 +10°C° 0 mm 5 mps 748 mmHg 81%
20:00 +10°C° 0 mm 6 mps 748 mmHg 80%
21:00 +10°C° 0 mm 6 mps 748 mmHg 81%
22:00 +10°C° 0 mm 5 mps 748 mmHg 82%
23:00 +10°C° 0 mm 5 mps 748 mmHg 83%

26 October, Monday

Time Temperature Precipitation Wind Pressure Humidity
00:00 +7°C° 0 mm 2 mps 752 mmHg 93%
01:00 +7°C° 0 mm 3 mps 751 mmHg 93%
02:00 +7°C° 0 mm 3 mps 751 mmHg 94%
03:00 +7°C° 0 mm 3 mps 751 mmHg 94%
04:00 +7°C° 0 mm 3 mps 751 mmHg 94%
05:00 +7°C° 0 mm 3 mps 751 mmHg 94%
06:00 +6°C° 0 mm 4 mps 751 mmHg 95%
07:00 +6°C° 0 mm 4 mps 751 mmHg 95%
08:00 +6°C° 0 mm 4 mps 751 mmHg 96%
09:00 +7°C° 0 mm 5 mps 751 mmHg 92%
10:00 +8°C° 0 mm 5 mps 750 mmHg 89%
11:00 +9°C° 0 mm 5 mps 750 mmHg 85%
12:00 +10°C° 0 mm 5 mps 750 mmHg 82%
13:00 +11°C° 0 mm 6 mps 750 mmHg 79%
14:00 +13°C° 0 mm 6 mps 749 mmHg 75%
15:00 +12°C° 0 mm 5 mps 749 mmHg 77%
16:00 +12°C° 0 mm 5 mps 749 mmHg 79%
17:00 +10°C° 0 mm 5 mps 748 mmHg 81%
18:00 +10°C° 0 mm 5 mps 748 mmHg 81%
19:00 +10°C° 0 mm 5 mps 748 mmHg 81%
20:00 +10°C° 0 mm 6 mps 748 mmHg 80%
21:00 +10°C° 0 mm 6 mps 748 mmHg 81%
22:00 +10°C° 0 mm 5 mps 748 mmHg 82%
23:00 +10°C° 0 mm 5 mps 748 mmHg 83%

27 October, Tuesday

Time Temperature Precipitation Wind Pressure Humidity
00:00 +10°C° 0 mm 5 mps 747 mmHg 85%
01:00 +12°C° 0 mm 5 mps 747 mmHg 86%
02:00 +12°C° 0 mm 5 mps 747 mmHg 88%
03:00 +12°C° 0 mm 5 mps 747 mmHg 88%
04:00 +12°C° 0 mm 5 mps 747 mmHg 89%
05:00 +12°C° 0 mm 5 mps 747 mmHg 89%
06:00 +12°C° 0 mm 5 mps 747 mmHg 90%
07:00 +12°C° 0 mm 5 mps 747 mmHg 90%
08:00 +12°C° 0 mm 5 mps 748 mmHg 90%
09:00 +13°C° 0 mm 5 mps 748 mmHg 87%
10:00 +13°C° 0 mm 5 mps 748 mmHg 83%
11:00 +14°C° 0 mm 5 mps 748 mmHg 80%
12:00 +15°C° 0 mm 5 mps 748 mmHg 78%
13:00 +15°C° 0 mm 4 mps 748 mmHg 76%
14:00 +17°C° 0 mm 4 mps 748 mmHg 73%
15:00 +15°C° 0 mm 4 mps 748 mmHg 78%
16:00 +14°C° 0 mm 3 mps 748 mmHg 83%
17:00 +13°C° 0 mm 3 mps 748 mmHg 89%
18:00 +13°C° 0 mm 3 mps 748 mmHg 90%
19:00 +12°C° 0 mm 3 mps 748 mmHg 91%
20:00 +12°C° 0 mm 4 mps 748 mmHg 93%
21:00 +11°C° 0 mm 3 mps 748 mmHg 93%
22:00 +11°C° 0 mm 3 mps 748 mmHg 94%
23:00 +11°C° 0 mm 3 mps 749 mmHg 94%

28 October, Wednesday

Time Temperature Precipitation Wind Pressure Humidity
00:00 +11°C° 0 mm 3 mps 749 mmHg 95%
01:00 +10°C° 0 mm 2 mps 748 mmHg 95%
02:00 +10°C° 0 mm 2 mps 748 mmHg 95%
03:00 +10°C° 0 mm 2 mps 748 mmHg 95%
04:00 +10°C° 0 mm 2 mps 748 mmHg 96%
05:00 +10°C° 0 mm 2 mps 748 mmHg 96%
06:00 +10°C° 0 mm 2 mps 748 mmHg 96%
07:00 +10°C° 0 mm 2 mps 748 mmHg 96%
08:00 +10°C° 0 mm 2 mps 748 mmHg 96%
09:00 +13°C° 0 mm 2 mps 748 mmHg 92%
10:00 +14°C° 0 mm 2 mps 748 mmHg 88%
11:00 +15°C° 0 mm 2 mps 748 mmHg 84%
12:00 +16°C° 0 mm 2 mps 748 mmHg 81%
13:00 +16°C° 0 mm 3 mps 748 mmHg 79%
14:00 +17°C° 0 mm 3 mps 748 mmHg 76%
15:00 +16°C° 0 mm 3 mps 748 mmHg 80%
16:00 +15°C° 0 mm 2 mps 748 mmHg 83%
17:00 +14°C° 0 mm 2 mps 748 mmHg 87%
18:00 +14°C° 0 mm 2 mps 748 mmHg 88%
19:00 +14°C° 0 mm 2 mps 748 mmHg 89%
20:00 +13°C° 0 mm 2 mps 748 mmHg 90%
21:00 +13°C° 0 mm 2 mps 748 mmHg 91%
22:00 +12°C° 0 mm 2 mps 748 mmHg 92%
23:00 +11°C° 0 mm 3 mps 749 mmHg 93%
Show more